,,,PA_Meas_PMT16A,,PR_Meas_QMR101_102,,RH_Meas_QMH101,,SR_Meas_QMS101,,TA_Meas_QMH101,,GenWind,,GenWind,
date,time,status,PA,status,PR,status,RH,status,SR,status,TA,status,DirAvg,status,SpdAvg,
2011-05-31, 00:00:04,VALID,1004.72,VALID,0,INVALID,163.525,VALID,0.100563,VALID,26.4277,VALID,23,VALID,0.534766,
2011-05-31, 00:01:04,VALID,1004.71,VALID,0,INVALID,163.54,VALID,0,VALID,26.4667,VALID,15,VALID,0.753125,
2011-05-31, 00:02:04,VALID,1004.68,VALID,0,INVALID,163.556,VALID,0.100563,VALID,26.4646,VALID,27,VALID,0.262109,
2011-05-31, 00:03:04,VALID,1004.68,VALID,0,INVALID,163.556,VALID,0,VALID,26.4667,VALID,27,VALID,0.567969,
2011-05-31, 00:04:04,VALID,1004.62,VALID,0,INVALID,163.548,VALID,0.100563,VALID,26.4667,VALID,24,VALID,0.335938,
2011-05-31, 00:05:04,VALID,1004.61,VALID,0,INVALID,163.548,VALID,0,VALID,26.4277,VALID,24,VALID,0.436719,
2011-05-31, 00:06:04,VALID,1004.58,VALID,0,INVALID,163.548,VALID,0.100563,VALID,26.4082,VALID,25,VALID,0.557813,
2011-05-31, 00:07:04,VALID,1004.54,VALID,0,INVALID,163.54,VALID,0,VALID,26.4102,VALID,25,VALID,0.617578,
2011-05-31, 00:08:04,VALID,1004.55,VALID,0,INVALID,163.578,VALID,0,VALID,26.3887,VALID,25,VALID,0.426172,
2011-05-31, 00:09:04,VALID,1004.53,VALID,0,INVALID,163.525,VALID,0.100563,VALID,26.3673,VALID,25,VALID,0.692187,
2011-05-31, 00:10:04,VALID,1004.51,VALID,0,INVALID,163.533,VALID,0,VALID,26.3478,VALID,25,VALID,0.307422,
2011-05-31, 00:11:04,VALID,1004.47,VALID,0,INVALID,163.548,VALID,0,VALID,26.3498,VALID,27,VALID,0.870703,
2011-05-31, 00:12:04,VALID,1004.46,VALID,0,INVALID,163.517,VALID,0.100563,VALID,26.3303,VALID,25,VALID,0.569922,
2011-05-31, 00:13:04,VALID,1004.45,VALID,0,INVALID,163.51,VALID,0.100563,VALID,26.3108,VALID,28,VALID,0.65,
2011-05-31, 00:14:04,VALID,1004.41,VALID,0,INVALID,163.54,VALID,0.100563,VALID,26.2719,VALID,28,VALID,0.814062,
2011-05-31, 00:15:04,VALID,1004.39,VALID,0,INVALID,163.556,VALID,0.100563,VALID,26.2134,VALID,29,VALID,0.651953,
2011-05-31, 00:16:04,VALID,1004.38,VALID,0,INVALID,163.556,VALID,0.100563,VALID,26.194,VALID,27,VALID,0.565625,
2011-05-31, 00:17:04,VALID,1004.39,VALID,0,INVALID,163.594,VALID,0.100563,VALID,26.155,VALID,21,VALID,0.922656,
2011-05-31, 00:18:04,VALID,1004.4,VALID,0,INVALID,163.563,VALID,0,VALID,26.153,VALID,24,VALID,0.545703,
2011-05-31, 00:19:04,VALID,1004.4,VALID,0,INVALID,163.563,VALID,0.100563,VALID,26.155,VALID,5,VALID,0.954687,
2011-05-31, 00:20:04,VALID,1004.4,VALID,0,INVALID,163.571,VALID,0.100563,VALID,26.1745,VALID,18,VALID,0.614844,
2011-05-31, 00:21:04,VALID,1004.38,VALID,0,INVALID,163.54,VALID,0.100563,VALID,26.2114,VALID,25,VALID,0.800781,
2011-05-31, 00:22:04,VALID,1004.38,VALID,0,INVALID,163.578,VALID,0.100563,VALID,26.2913,VALID,26,VALID,1.07773,
2011-05-31, 00:23:04,VALID,1004.39,VALID,0,INVALID,163.556,VALID,0,VALID,26.3303,VALID,23,VALID,0.757031,
2011-05-31, 00:24:04,VALID,1004.37,VALID,0,INVALID,163.548,VALID,0,VALID,26.3518,VALID,356,VALID,0.955469,
2011-05-31, 00:25:04,VALID,1004.37,VALID,0,INVALID,163.578,VALID,0.100563,VALID,26.3498,VALID,28,VALID,1.14492,
2011-05-31, 00:26:04,VALID,1004.34,VALID,0,INVALID,163.533,VALID,0.100563,VALID,26.3693,VALID,13,VALID,1.25195,
2011-05-31, 00:27:04,VALID,1004.35,VALID,0,INVALID,163.54,VALID,0.100563,VALID,26.4277,VALID,30,VALID,1.09492,
2011-05-31, 00:28:04,VALID,1004.36,VALID,0,INVALID,163.525,VALID,0.100563,VALID,26.4861,VALID,19,VALID,1.29688,
2011-05-31, 00:29:04,VALID,1004.37,VALID,0,INVALID,163.548,VALID,0,VALID,26.5251,VALID,13,VALID,1.04961,
2011-05-31, 00:30:04,VALID,1004.37,VALID,0,INVALID,163.525,VALID,0,VALID,26.5446,VALID,10,VALID,0.630469,
2011-05-31, 00:31:04,VALID,1004.35,VALID,0,INVALID,163.548,VALID,0.100563,VALID,26.5251,VALID,5,VALID,0.575391,
2011-05-31, 00:32:04,VALID,1004.35,VALID,0,INVALID,163.563,VALID,0.100563,VALID,26.5056,VALID,15,VALID,0.713281,
2011-05-31, 00:33:04,VALID,1004.36,VALID,0,INVALID,163.571,VALID,0,VALID,26.4472,VALID,19,VALID,0.810156,
2011-05-31, 00:34:04,VALID,1004.3,VALID,0,INVALID,163.54,VALID,0,VALID,26.4277,VALID,9,VALID,0.679688,
2011-05-31, 00:35:04,VALID,1004.3,VALID,0,INVALID,163.548,VALID,0,VALID,26.4277,VALID,10,VALID,1.03945,
2011-05-31, 00:36:04,VALID,1004.31,VALID,0,INVALID,163.54,VALID,0,VALID,26.4472,VALID,15,VALID,0.857031,
2011-05-31, 00:37:04,VALID,1004.34,VALID,0,INVALID,163.548,VALID,0.100563,VALID,26.4472,VALID,17,VALID,0.638672,
2011-05-31, 00:38:04,VALID,1004.35,VALID,0,INVALID,163.548,VALID,0,VALID,26.4492,VALID,357,VALID,0.980859,
2011-05-31, 00:39:04,VALID,1004.33,VALID,0,INVALID,163.533,VALID,0.100563,VALID,26.4667,VALID,9,VALID,1.03984,
2011-05-31, 00:40:04,VALID,1004.31,VALID,0,INVALID,163.571,VALID,0,VALID,26.4257,VALID,12,VALID,0.748047,
2011-05-31, 00:41:04,VALID,1004.32,VALID,0,INVALID,163.54,VALID,0.100563,VALID,26.4667,VALID,3,VALID,1.27539,
2011-05-31, 00:42:04,VALID,1004.31,VALID,0,INVALID,163.578,VALID,0,VALID,26.4452,VALID,4,VALID,1.29766,
2011-05-31, 00:43:04,VALID,1004.32,VALID,0,INVALID,163.533,VALID,0,VALID,26.4861,VALID,359,VALID,1.225,
2011-05-31, 00:44:04,VALID,1004.3,VALID,0,INVALID,163.533,VALID,0,VALID,26.5076,VALID,9,VALID,0.814062,
2011-05-31, 00:45:04,VALID,1004.26,VALID,0,INVALID,163.54,VALID,0,VALID,26.5251,VALID,14,VALID,1.63516,
2011-05-31, 00:46:04,VALID,1004.26,VALID,0,INVALID,163.533,VALID,0,VALID,26.5466,VALID,23,VALID,1.57187,
2011-05-31, 00:47:04,VALID,1004.24,VALID,0,INVALID,163.525,VALID,0,VALID,26.5661,VALID,360,VALID,1.11289,
2011-05-31, 00:48:04,VALID,1004.25,VALID,0,INVALID,163.502,VALID,0,VALID,26.5466,VALID,358,VALID,1.01797,
2011-05-31, 00:49:04,VALID,1004.27,VALID,0,INVALID,163.502,VALID,0,VALID,26.5466,VALID,346,VALID,1.1875,
2011-05-31, 00:50:04,VALID,1004.26,VALID,0,INVALID,163.556,VALID,0,VALID,26.5271,VALID,359,VALID,1.05156,
2011-05-31, 00:51:04,VALID,1004.24,VALID,0,INVALID,163.548,VALID,0,VALID,26.5076,VALID,2,VALID,0.735937,
2011-05-31, 00:52:04,VALID,1004.26,VALID,0,INVALID,163.556,VALID,0,VALID,26.4492,VALID,350,VALID,0.916016,
2011-05-31, 00:53:04,VALID,1004.27,VALID,0,INVALID,163.533,VALID,0,VALID,26.4277,VALID,351,VALID,0.834766,
2011-05-31, 00:54:04,VALID,1004.26,VALID,0,INVALID,163.556,VALID,0,VALID,26.3887,VALID,353,VALID,0.826563,
2011-05-31, 00:55:04,VALID,1004.26,VALID,0,INVALID,163.548,VALID,0,VALID,26.4102,VALID,359,VALID,0.983203,
2011-05-31, 00:56:04,VALID,1004.26,VALID,0,INVALID,163.533,VALID,0,VALID,26.3907,VALID,1,VALID,0.627734,
2011-05-31, 00:57:04,VALID,1004.24,VALID,0,INVALID,163.563,VALID,0,VALID,26.3518,VALID,4,VALID,0.821484,
2011-05-31, 00:58:04,VALID,1004.23,VALID,0,INVALID,163.571,VALID,0,VALID,26.3323,VALID,5,VALID,0.641797,
2011-05-31, 00:59:04,VALID,1004.19,VALID,0,INVALID,163.586,VALID,0,VALID,26.2913,VALID,20,VALID,0.882031,
2011-05-31, 01:00:04,VALID,1004.23,VALID,0,INVALID,163.563,VALID,0,VALID,26.3128,VALID,1,VALID,1.34492,
2011-05-31, 01:01:04,VALID,1004.2,VALID,0,INVALID,163.548,VALID,0,VALID,26.3538,VALID,7,VALID,1.16406,
2011-05-31, 01:02:04,VALID,1004.17,VALID,0,INVALID,163.548,VALID,0,VALID,26.3128,VALID,11,VALID,1.04883,
2011-05-31, 01:03:04,VALID,1004.15,VALID,0,INVALID,163.586,VALID,0,VALID,26.3343,VALID,351,VALID,0.833203,
2011-05-31, 01:04:04,VALID,1004.13,VALID,0,INVALID,163.548,VALID,0,VALID,26.2719,VALID,360,VALID,0.780078,
2011-05-31, 01:05:05,VALID,1004.13,VALID,0,INVALID,163.556,VALID,0,VALID,26.3128,VALID,355,VALID,0.842969,
2011-05-31, 01:06:05,VALID,1004.1,VALID,0,INVALID,163.548,VALID,0,VALID,26.3323,VALID,343,VALID,0.770312,
2011-05-31, 01:07:05,VALID,1004.08,VALID,0,INVALID,163.548,VALID,0,VALID,26.3323,VALID,1,VALID,0.932813,
2011-05-31, 01:08:05,VALID,1004.07,VALID,0,INVALID,163.548,VALID,0,VALID,26.2913,VALID,360,VALID,0.964844,
2011-05-31, 01:09:05,VALID,1004.05,VALID,0,INVALID,163.556,VALID,0,VALID,26.3128,VALID,13,VALID,0.647266,
2011-05-31, 01:10:05,VALID,1004.03,VALID,0,INVALID,163.571,VALID,0,VALID,26.3148,VALID,357,VALID,0.930078,
2011-05-31, 01:11:05,VALID,1004,VALID,0,INVALID,163.563,VALID,0,VALID,26.2933,VALID,357,VALID,0.609766,
2011-05-31, 01:12:05,VALID,1003.98,VALID,0,INVALID,163.571,VALID,0,VALID,26.2739,VALID,344,VALID,0.553516,
2011-05-31, 01:13:05,VALID,1003.99,VALID,0,INVALID,163.54,VALID,0,VALID,26.2933,VALID,6,VALID,0.830469,
2011-05-31, 01:14:05,VALID,1003.98,VALID,0,INVALID,163.563,VALID,0,VALID,26.3128,VALID,348,VALID,0.665234,
2011-05-31, 01:15:05,VALID,1003.95,VALID,0,INVALID,163.556,VALID,0,VALID,26.2524,VALID,352,VALID,0.698438,
2011-05-31, 01:16:05,VALID,1003.93,VALID,0,INVALID,163.586,VALID,0,VALID,26.2933,VALID,325,VALID,0.719922,
2011-05-31, 01:17:05,VALID,1003.93,VALID,0,INVALID,163.571,VALID,0,VALID,26.2719,VALID,346,VALID,0.373437,
2011-05-31, 01:18:05,VALID,1003.88,VALID,0,INVALID,163.578,VALID,0,VALID,26.2329,VALID,347,VALID,0.428906,
2011-05-31, 01:19:05,VALID,1003.87,VALID,0,INVALID,163.571,VALID,0,VALID,26.2134,VALID,347,VALID,0.399609,
2011-05-31, 01:20:05,VALID,1003.84,VALID,0,INVALID,163.578,VALID,0,VALID,26.194,VALID,346,VALID,0.39375,
2011-05-31, 01:21:05,VALID,1003.82,VALID,0,INVALID,163.586,VALID,0.100563,VALID,26.155,VALID,346,VALID,0.434766,
2011-05-31, 01:22:05,VALID,1003.79,VALID,0,INVALID,163.571,VALID,0.100563,VALID,26.116,VALID,346,VALID,0.660547,
2011-05-31, 01:23:05,VALID,1003.77,VALID,0,INVALID,163.571,VALID,0,VALID,26.0985,VALID,339,VALID,0.148047,
2011-05-31, 01:24:05,VALID,1003.77,VALID,0,INVALID,163.578,VALID,0,VALID,26.0576,VALID,339,VALID,0.282813,
2011-05-31, 01:25:05,VALID,1003.74,VALID,0,INVALID,163.586,VALID,0,VALID,26.0381,VALID,338,VALID,0.214062,
2011-05-31, 01:26:05,VALID,1003.71,VALID,0,INVALID,163.578,VALID,0,VALID,26.0381,VALID,350,VALID,0.516797,
2011-05-31, 01:27:05,VALID,1003.69,VALID,0,INVALID,163.586,VALID,0.100563,VALID,26.0187,VALID,355,VALID,0.723828,
2011-05-31, 01:28:05,VALID,1003.7,VALID,0,INVALID,163.563,VALID,0,VALID,26.0187,VALID,342,VALID,0.580469,
2011-05-31, 01:29:05,VALID,1003.67,VALID,0,INVALID,163.578,VALID,0.100563,VALID,26.0187,VALID,358,VALID,0.458594,
2011-05-31, 01:30:05,VALID,1003.65,VALID,0,INVALID,163.556,VALID,0.100563,VALID,25.9992,VALID,357,VALID,0.300391,
2011-05-31, 01:31:05,VALID,1003.63,VALID,0,INVALID,163.571,VALID,0,VALID,25.9992,VALID,344,VALID,0.441016,
2011-05-31, 01:32:05,VALID,1003.61,VALID,0,INVALID,163.556,VALID,0,VALID,25.9992,VALID,338,VALID,0.523828,
2011-05-31, 01:33:05,VALID,1003.59,VALID,0,INVALID,163.594,VALID,0.100563,VALID,26.0187,VALID,344,VALID,0.560156,
2011-05-31, 01:34:05,VALID,1003.59,VALID,0,INVALID,163.563,VALID,0,VALID,26.0187,VALID,5,VALID,0.630859,
2011-05-31, 01:35:05,VALID,1003.58,VALID,0,INVALID,163.54,VALID,0,VALID,26.0381,VALID,355,VALID,1.09492,
2011-05-31, 01:36:05,VALID,1003.56,VALID,0,INVALID,163.571,VALID,0,VALID,26.0771,VALID,360,VALID,0.6625,
2011-05-31, 01:37:05,VALID,1003.53,VALID,0,INVALID,163.571,VALID,0,VALID,26.155,VALID,360,VALID,1.03633,
2011-05-31, 01:38:05,VALID,1003.53,VALID,0,INVALID,163.563,VALID,0,VALID,26.2154,VALID,21,VALID,0.853516,
2011-05-31, 01:39:05,VALID,1003.51,VALID,0,INVALID,163.556,VALID,0,VALID,26.194,VALID,9,VALID,0.735156,
2011-05-31, 01:40:05,VALID,1003.51,VALID,0,INVALID,163.571,VALID,0,VALID,26.2524,VALID,5,VALID,0.933594,
2011-05-31, 01:41:05,VALID,1003.48,VALID,0,INVALID,163.556,VALID,0,VALID,26.2719,VALID,353,VALID,0.742578,
2011-05-31, 01:42:05,VALID,1003.45,VALID,0,INVALID,163.556,VALID,0,VALID,26.2699,VALID,352,VALID,1.10078,
2011-05-31, 01:43:05,VALID,1003.47,VALID,0,INVALID,163.571,VALID,0,VALID,26.2894,VALID,5,VALID,0.714453,
2011-05-31, 01:44:05,VALID,1003.43,VALID,0,INVALID,163.556,VALID,0,VALID,26.3303,VALID,360,VALID,0.669531,
2011-05-31, 01:45:05,VALID,1003.43,VALID,0,INVALID,163.548,VALID,0,VALID,26.3303,VALID,357,VALID,0.614844,
2011-05-31, 01:46:05,VALID,1003.39,VALID,0,INVALID,163.556,VALID,0,VALID,26.3303,VALID,356,VALID,0.860937,
2011-05-31, 01:47:05,VALID,1003.42,VALID,0,INVALID,163.556,VALID,0,VALID,26.3518,VALID,358,VALID,1.09453,
2011-05-31, 01:48:05,VALID,1003.4,VALID,0,INVALID,163.548,VALID,0,VALID,26.3323,VALID,348,VALID,0.819922,
2011-05-31, 01:49:05,VALID,1003.4,VALID,0,INVALID,163.563,VALID,0,VALID,26.2913,VALID,349,VALID,0.751562,
2011-05-31, 01:50:05,VALID,1003.39,VALID,0,INVALID,163.571,VALID,0.100563,VALID,26.3108,VALID,1,VALID,0.802734,
2011-05-31, 01:51:05,VALID,1003.4,VALID,0,INVALID,163.556,VALID,0.100563,VALID,26.3108,VALID,3,VALID,0.541797,
2011-05-31, 01:52:05,VALID,1003.39,VALID,0,INVALID,163.54,VALID,0,VALID,26.2699,VALID,12,VALID,0.691797,
2011-05-31, 01:53:05,VALID,1003.38,VALID,0,INVALID,163.548,VALID,0.100563,VALID,26.2913,VALID,358,VALID,0.690234,
2011-05-31, 01:54:05,VALID,1003.37,VALID,0,INVALID,163.578,VALID,0.100563,VALID,26.2913,VALID,3,VALID,0.592969,
2011-05-31, 01:55:05,VALID,1003.37,VALID,0,INVALID,163.548,VALID,0,VALID,26.2719,VALID,360,VALID,0.555469,
2011-05-31, 01:56:05,VALID,1003.38,VALID,0,INVALID,163.548,VALID,0.100563,VALID,26.2719,VALID,346,VALID,0.450391,
2011-05-31, 01:57:05,VALID,1003.37,VALID,0,INVALID,163.548,VALID,0,VALID,26.2524,VALID,2,VALID,0.663672,
2011-05-31, 01:58:05,VALID,1003.38,VALID,0,INVALID,163.578,VALID,0.100563,VALID,26.2739,VALID,360,VALID,0.560547,
2011-05-31, 01:59:05,VALID,1003.38,VALID,0,INVALID,163.571,VALID,0,VALID,26.2524,VALID,343,VALID,0.494531,
2011-05-31, 02:00:05,VALID,1003.34,VALID,0,INVALID,163.548,VALID,0.100563,VALID,26.2524,VALID,343,VALID,0.339453,
2011-05-31, 02:01:05,VALID,1003.34,VALID,0,INVALID,163.571,VALID,0,VALID,26.2114,VALID,343,VALID,0.0984375,
2011-05-31, 02:02:05,VALID,1003.33,VALID,0,INVALID,163.548,VALID,0,VALID,26.2134,VALID,341,VALID,0.547656,
2011-05-31, 02:03:05,VALID,1003.3,VALID,0,INVALID,163.578,VALID,0,VALID,26.194,VALID,327,VALID,0.186719,
2011-05-31, 02:04:05,VALID,1003.3,VALID,0,INVALID,163.563,VALID,0.100563,VALID,26.155,VALID,327,VALID,0.0304688,
2011-05-31, 02:05:05,VALID,1003.24,VALID,0,INVALID,163.563,VALID,0,VALID,26.116,VALID,327,VALID,0.0410156,
2011-05-31, 02:06:05,VALID,1003.23,VALID,0,INVALID,163.586,VALID,0,VALID,26.0966,VALID,328,VALID,0.0550781,
2011-05-31, 02:07:05,VALID,1003.23,VALID,0,INVALID,163.548,VALID,0.100563,VALID,26.0771,VALID,347,VALID,0.389844,
2011-05-31, 02:08:05,VALID,1003.18,VALID,0,INVALID,163.578,VALID,0,VALID,25.9797,VALID,52,VALID,0.464844,
2011-05-31, 02:09:05,VALID,1003.18,VALID,0,INVALID,163.586,VALID,0,VALID,25.8843,VALID,52,VALID,0.403516,
2011-05-31, 02:10:05,VALID,1003.16,VALID,0,INVALID,163.586,VALID,0,VALID,25.785,VALID,52,VALID,0.39375,
2011-05-31, 02:11:05,VALID,1003.14,VALID,0,INVALID,163.578,VALID,0,VALID,25.7265,VALID,52,VALID,0.252734,
2011-05-31, 02:12:05,VALID,1003.14,VALID,0,INVALID,163.594,VALID,0.100563,VALID,25.6486,VALID,52,VALID,0,
2011-05-31, 02:13:05,VALID,1003.14,VALID,0,INVALID,163.601,VALID,0,VALID,25.6097,VALID,52,VALID,0,
2011-05-31, 02:14:05,VALID,1003.14,VALID,0,INVALID,163.609,VALID,0,VALID,25.5902,VALID,52,VALID,0,
2011-05-31, 02:15:05,VALID,1003.1,VALID,0,INVALID,163.594,VALID,0,VALID,25.5318,VALID,52,VALID,0,
2011-05-31, 02:16:05,VALID,1003.11,VALID,0,INVALID,163.601,VALID,0.100563,VALID,25.5318,VALID,111,VALID,0,
2011-05-31, 02:17:05,VALID,1003.12,VALID,0,INVALID,163.578,VALID,0.100563,VALID,25.5104,VALID,124,VALID,0,
2011-05-31, 02:18:05,VALID,1003.07,VALID,0,INVALID,163.571,VALID,0,VALID,25.5707,VALID,153,VALID,0,
2011-05-31, 02:19:05,VALID,1003.08,VALID,0,INVALID,163.601,VALID,0,VALID,25.6116,VALID,153,VALID,0,
2011-05-31, 02:20:05,VALID,1003.06,VALID,0,INVALID,163.601,VALID,0,VALID,25.5513,VALID,153,VALID,0,
2011-05-31, 02:21:05,VALID,1003.02,VALID,0,INVALID,163.617,VALID,0.100563,VALID,25.5921,VALID,153,VALID,0,
2011-05-31, 02:22:05,VALID,1003.02,VALID,0,INVALID,163.601,VALID,0,VALID,25.5513,VALID,153,VALID,0,
2011-05-31, 02:23:05,VALID,1003.02,VALID,0,INVALID,163.594,VALID,0,VALID,25.5104,VALID,153,VALID,0,
2011-05-31, 02:24:05,VALID,1003.02,VALID,0,INVALID,163.624,VALID,0,VALID,25.5318,VALID,153,VALID,0,
2011-05-31, 02:25:05,VALID,1003.03,VALID,0,INVALID,163.617,VALID,0.100563,VALID,25.5104,VALID,153,VALID,0,
2011-05-31, 02:26:05,VALID,1003.04,VALID,0,INVALID,163.655,VALID,0.100563,VALID,25.5318,VALID,153,VALID,0,
2011-05-31, 02:27:05,VALID,1003.03,VALID,0,INVALID,163.609,VALID,0,VALID,25.5337,VALID,197,VALID,0.0527344,
2011-05-31, 02:28:05,VALID,1003.05,VALID,0,INVALID,163.632,VALID,0,VALID,25.5142,VALID,286,VALID,0.428906,
2011-05-31, 02:29:05,VALID,1003.07,VALID,0,INVALID,163.617,VALID,0,VALID,25.4909,VALID,286,VALID,0.317969,
2011-05-31, 02:30:05,VALID,1003.1,VALID,0,INVALID,163.617,VALID,0.100563,VALID,25.5318,VALID,236,VALID,0.40625,
2011-05-31, 02:31:05,VALID,1003.17,VALID,0,INVALID,163.594,VALID,0.100563,VALID,25.5318,VALID,234,VALID,0.406641,
2011-05-31, 02:32:05,VALID,1003.25,VALID,0,INVALID,163.594,VALID,0,VALID,25.5318,VALID,243,VALID,1.09727,
2011-05-31, 02:33:05,VALID,1003.28,VALID,0,INVALID,163.609,VALID,0.100563,VALID,25.5123,VALID,241,VALID,0.845703,
2011-05-31, 02:34:05,VALID,1003.3,VALID,0,INVALID,163.609,VALID,0.100563,VALID,25.5123,VALID,267,VALID,0.711328,
2011-05-31, 02:35:05,VALID,1003.34,VALID,0,INVALID,163.586,VALID,0,VALID,25.5104,VALID,222,VALID,1.00547,
2011-05-31, 02:36:05,VALID,1003.31,VALID,0,INVALID,163.609,VALID,0,VALID,25.5532,VALID,246,VALID,0.905078,
2011-05-31, 02:37:05,VALID,1003.35,VALID,0,INVALID,163.632,VALID,0,VALID,25.5513,VALID,311,VALID,0.963672,
2011-05-31, 02:38:05,VALID,1003.33,VALID,0,INVALID,163.609,VALID,0,VALID,25.5688,VALID,243,VALID,1.8,
2011-05-31, 02:39:05,VALID,1003.33,VALID,0,INVALID,163.609,VALID,0.100563,VALID,25.6097,VALID,278,VALID,1.35234,
2011-05-31, 02:40:05,VALID,1003.31,VALID,0,INVALID,163.617,VALID,0,VALID,25.6292,VALID,320,VALID,0.973047,
2011-05-31, 02:41:05,VALID,1003.31,VALID,0,INVALID,163.601,VALID,0.100563,VALID,25.6077,VALID,253,VALID,2.30703,
2011-05-31, 02:42:05,VALID,1003.31,VALID,0,INVALID,163.601,VALID,0.100563,VALID,25.6097,VALID,280,VALID,1.44141,
2011-05-31, 02:43:05,VALID,1003.29,VALID,0,INVALID,163.601,VALID,0.100563,VALID,25.5493,VALID,280,VALID,2.3418,
2011-05-31, 02:44:05,VALID,1003.27,VALID,0,INVALID,163.609,VALID,0,VALID,25.5337,VALID,321,VALID,1.43008,
2011-05-31, 02:45:05,VALID,1003.33,VALID,0,INVALID,163.617,VALID,0,VALID,25.4948,VALID,282,VALID,1.36914,
2011-05-31, 02:46:05,VALID,1003.32,VALID,0,INVALID,163.624,VALID,0,VALID,25.4383,VALID,282,VALID,2.16602,
2011-05-31, 02:47:05,VALID,1003.31,VALID,0,INVALID,163.624,VALID,0,VALID,25.3584,VALID,277,VALID,1.29844,
2011-05-31, 02:48:05,VALID,1003.24,VALID,0.5,INVALID,163.632,VALID,0,VALID,25.3409,VALID,327,VALID,2.29336,
2011-05-31, 02:49:05,VALID,1003.27,VALID,0,INVALID,163.647,VALID,0,VALID,25.2611,VALID,272,VALID,0.711328,
2011-05-31, 02:50:05,VALID,1003.25,VALID,0,INVALID,163.632,VALID,0,VALID,25.2007,VALID,272,VALID,1.23711,
2011-05-31, 02:51:05,VALID,1003.24,VALID,0,INVALID,163.632,VALID,0,VALID,25.1442,VALID,291,VALID,1.98125,
2011-05-31, 02:52:05,VALID,1003.23,VALID,0,INVALID,163.632,VALID,0,VALID,25.0839,VALID,316,VALID,1.23867,
2011-05-31, 02:53:05,VALID,1003.22,VALID,0,INVALID,163.662,VALID,0,VALID,25.045,VALID,299,VALID,1.43906,
2011-05-31, 02:54:05,VALID,1003.2,VALID,0,INVALID,163.647,VALID,0,VALID,25.0663,VALID,314,VALID,1.08828,
2011-05-31, 02:55:05,VALID,1003.2,VALID,0,INVALID,163.647,VALID,0,VALID,25.0274,VALID,16,VALID,0.609766,
2011-05-31, 02:56:05,VALID,1003.15,VALID,0,INVALID,163.655,VALID,0,VALID,24.9885,VALID,288,VALID,1.66367,
2011-05-31, 02:57:05,VALID,1003.17,VALID,0,INVALID,163.662,VALID,0,VALID,24.93,VALID,321,VALID,0.482422,
2011-05-31, 02:58:05,VALID,1003.18,VALID,0,INVALID,163.678,VALID,0,VALID,24.93,VALID,329,VALID,0.482031,
2011-05-31, 02:59:05,VALID,1003.16,VALID,0,INVALID,163.678,VALID,0,VALID,24.8716,VALID,275,VALID,1.15586,
2011-05-31, 03:00:05,VALID,1003.15,VALID,0,INVALID,163.662,VALID,0,VALID,24.8327,VALID,316,VALID,1.74648,
2011-05-31, 03:01:05,VALID,1003.18,VALID,0,INVALID,163.655,VALID,0,VALID,24.8132,VALID,304,VALID,1.13164,
2011-05-31, 03:02:05,VALID,1003.17,VALID,0,INVALID,163.685,VALID,0,VALID,24.7937,VALID,346,VALID,1.41328,
2011-05-31, 03:03:05,VALID,1003.18,VALID,0,INVALID,163.693,VALID,0,VALID,24.7937,VALID,282,VALID,1.64531,
2011-05-31, 03:04:05,VALID,1003.21,VALID,0,INVALID,163.67,VALID,0,VALID,24.7724,VALID,269,VALID,0.798828,
2011-05-31, 03:05:05,VALID,1003.22,VALID,0,INVALID,163.662,VALID,0,VALID,24.7529,VALID,291,VALID,1.38906,
2011-05-31, 03:06:05,VALID,1003.21,VALID,0,INVALID,163.701,VALID,0,VALID,24.7724,VALID,296,VALID,1.29258,
2011-05-31, 03:07:05,VALID,1003.22,VALID,0,INVALID,163.67,VALID,0,VALID,24.7743,VALID,345,VALID,0.486719,
2011-05-31, 03:08:05,VALID,1003.19,VALID,0,INVALID,163.67,VALID,0,VALID,24.7743,VALID,310,VALID,1.19141,
2011-05-31, 03:09:05,VALID,1003.17,VALID,0,INVALID,163.639,VALID,0,VALID,24.7724,VALID,272,VALID,0.429688,
2011-05-31, 03:10:05,VALID,1003.15,VALID,0,INVALID,163.67,VALID,0,VALID,24.7937,VALID,295,VALID,1.04961,
2011-05-31, 03:11:05,VALID,1003.12,VALID,0,INVALID,163.678,VALID,0,VALID,24.7743,VALID,275,VALID,0.972656,
2011-05-31, 03:12:05,VALID,1003.11,VALID,0,INVALID,163.678,VALID,0,VALID,24.7743,VALID,315,VALID,0.608594,
2011-05-31, 03:13:05,VALID,1003.08,VALID,0,INVALID,163.678,VALID,0,VALID,24.7529,VALID,283,VALID,1.74336,
2011-05-31, 03:14:05,VALID,1003.04,VALID,0,INVALID,163.685,VALID,0,VALID,24.7529,VALID,324,VALID,0.380859,
2011-05-31, 03:15:05,VALID,1003.02,VALID,0,INVALID,163.685,VALID,0,VALID,24.7529,VALID,7,VALID,1.17695,
2011-05-31, 03:16:05,VALID,1002.99,VALID,0,INVALID,163.67,VALID,0,VALID,24.7937,VALID,14,VALID,0.204688,
2011-05-31, 03:17:05,VALID,1002.95,VALID,0,INVALID,163.632,VALID,0,VALID,24.7529,VALID,12,VALID,0.542578,
2011-05-31, 03:18:05,VALID,1002.96,VALID,0,INVALID,163.655,VALID,0,VALID,24.7529,VALID,343,VALID,0.756641,
2011-05-31, 03:19:05,VALID,1002.91,VALID,0,INVALID,163.662,VALID,0,VALID,24.7335,VALID,293,VALID,0.583203,
2011-05-31, 03:20:05,VALID,1002.93,VALID,0,INVALID,163.662,VALID,0,VALID,24.7548,VALID,35,VALID,0.371875,
2011-05-31, 03:21:05,VALID,1002.91,VALID,0,INVALID,163.655,VALID,0,VALID,24.6945,VALID,330,VALID,0.668359,
2011-05-31, 03:22:05,VALID,1002.93,VALID,0,INVALID,163.678,VALID,0,VALID,24.675,VALID,52,VALID,0.473828,
2011-05-31, 03:23:05,VALID,1002.89,VALID,0,INVALID,163.678,VALID,0,VALID,24.675,VALID,279,VALID,1.00781,
2011-05-31, 03:24:05,VALID,1002.9,VALID,0,INVALID,163.647,VALID,0,VALID,24.6769,VALID,276,VALID,0.171094,
2011-05-31, 03:25:05,VALID,1002.89,VALID,0,INVALID,163.693,VALID,0,VALID,24.6361,VALID,293,VALID,1.35977,
2011-05-31, 03:26:05,VALID,1002.88,VALID,0,INVALID,163.731,VALID,0,VALID,24.6166,VALID,306,VALID,0.683984,
2011-05-31, 03:27:05,VALID,1002.87,VALID,0,INVALID,163.685,VALID,0,VALID,24.6166,VALID,299,VALID,0.337109,
2011-05-31, 03:28:05,VALID,1002.85,VALID,0,INVALID,163.685,VALID,0,VALID,24.638,VALID,341,VALID,0.258203,
2011-05-31, 03:29:05,VALID,1002.84,VALID,0,INVALID,163.67,VALID,0.100563,VALID,24.5972,VALID,348,VALID,0.259766,
2011-05-31, 03:30:05,VALID,1002.85,VALID,0,INVALID,163.693,VALID,0,VALID,24.5777,VALID,313,VALID,0.327734,
2011-05-31, 03:31:05,VALID,1002.82,VALID,0,INVALID,163.685,VALID,0,VALID,24.5582,VALID,308,VALID,0.295312,
2011-05-31, 03:32:05,VALID,1002.8,VALID,0,INVALID,163.67,VALID,0,VALID,24.5388,VALID,309,VALID,0.233984,
2011-05-31, 03:33:05,VALID,1002.81,VALID,0,INVALID,163.701,VALID,0,VALID,24.5388,VALID,309,VALID,0.1,
2011-05-31, 03:34:05,VALID,1002.8,VALID,0,INVALID,163.701,VALID,0,VALID,24.5406,VALID,331,VALID,0.259766,
2011-05-31, 03:35:05,VALID,1002.79,VALID,0,INVALID,163.678,VALID,0,VALID,24.5212,VALID,358,VALID,0.477734,
2011-05-31, 03:36:05,VALID,1002.77,VALID,0,INVALID,163.693,VALID,0,VALID,24.4804,VALID,355,VALID,0.317578,
2011-05-31, 03:37:05,VALID,1002.78,VALID,0,INVALID,163.685,VALID,0,VALID,24.4822,VALID,355,VALID,0.382422,
2011-05-31, 03:38:05,VALID,1002.76,VALID,0,INVALID,163.701,VALID,0,VALID,24.4414,VALID,355,VALID,0.392188,
2011-05-31, 03:39:05,VALID,1002.73,VALID,0,INVALID,163.693,VALID,0,VALID,24.4414,VALID,355,VALID,0.360547,